When you browse on this site, cookies collect data to enhance your experience and personalize the content and advertising you see.
Visit our Privacy Policy to learn more. By continuing to use the site, you agree to this use of cookies and data.
  • In Slovakia
  • List of Countries
  • For 7 days
  • Water Temperature
  • Satellite Maps
  • Weather Map
  • Weather Widgets
  • user-avatar
    Login

    Hourly Weather Chakhansur

    Today, 11 December, Tuesday

    Time Temperature Precipitation Wind Pressure Humidity
    00:00 +13°C° 0 mm 3 mps 720 mmHg 44%
    01:00 +12°C° 0 mm 3 mps 720 mmHg 46%
    02:00 +12°C° 0 mm 3 mps 720 mmHg 47%
    03:00 +12°C° 0 mm 3 mps 720 mmHg 48%
    04:00 +11°C° 0 mm 3 mps 720 mmHg 50%
    05:00 +11°C° 0 mm 3 mps 720 mmHg 51%
    06:00 +10°C° 0 mm 3 mps 720 mmHg 52%
    07:00 +10°C° 0 mm 2 mps 721 mmHg 53%
    08:00 +12°C° 0 mm 2 mps 721 mmHg 48%
    09:00 +13°C° 0 mm 3 mps 721 mmHg 43%
    10:00 +14°C° 0 mm 3 mps 721 mmHg 38%
    11:00 +16°C° 0 mm 3 mps 721 mmHg 34%
    12:00 +17°C° 0 mm 3 mps 721 mmHg 31%
    13:00 +18°C° 0 mm 2 mps 721 mmHg 27%
    14:00 +19°C° 0 mm 2 mps 721 mmHg 27%
    15:00 +19°C° 0 mm 2 mps 720 mmHg 27%
    16:00 +19°C° 0 mm 2 mps 720 mmHg 26%
    17:00 +18°C° 0 mm 2 mps 721 mmHg 28%
    18:00 +17°C° 0 mm 2 mps 721 mmHg 31%
    19:00 +16°C° 0 mm 1 mps 721 mmHg 33%
    20:00 +15°C° 0 mm 1 mps 721 mmHg 34%
    21:00 +15°C° 0 mm 1 mps 721 mmHg 35%
    22:00 +15°C° 0 mm 2 mps 721 mmHg 36%
    23:00 +14°C° 0 mm 2 mps 721 mmHg 37%

    Tomorrow, 12 December, Wednesday

    Time Temperature Precipitation Wind Pressure Humidity
    00:00 +14°C° 0 mm 2 mps 721 mmHg 39%
    01:00 +13°C° 0 mm 2 mps 721 mmHg 40%
    02:00 +13°C° 0 mm 2 mps 721 mmHg 41%
    03:00 +13°C° 0 mm 2 mps 721 mmHg 42%
    04:00 +12°C° 0 mm 2 mps 721 mmHg 44%
    05:00 +12°C° 0 mm 2 mps 721 mmHg 45%
    06:00 +12°C° 0 mm 1 mps 722 mmHg 45%
    07:00 +11°C° 0 mm 1 mps 722 mmHg 46%
    08:00 +13°C° 0 mm 1 mps 723 mmHg 41%
    09:00 +15°C° 0 mm 1 mps 723 mmHg 37%
    10:00 +16°C° 0 mm 1 mps 724 mmHg 32%
    11:00 +18°C° 0 mm 1 mps 723 mmHg 30%
    12:00 +19°C° 0 mm 1 mps 723 mmHg 28%
    13:00 +20°C° 0 mm 1 mps 723 mmHg 26%
    14:00 +20°C° 0 mm 1 mps 723 mmHg 26%
    15:00 +20°C° 0 mm 1 mps 722 mmHg 26%
    16:00 +20°C° 0 mm 1 mps 722 mmHg 25%
    17:00 +19°C° 0 mm 1 mps 723 mmHg 28%
    18:00 +18°C° 0 mm 1 mps 723 mmHg 30%
    19:00 +16°C° 0 mm 1 mps 723 mmHg 32%
    20:00 +15°C° 0 mm 1 mps 723 mmHg 33%
    21:00 +15°C° 0 mm 1 mps 723 mmHg 33%
    22:00 +15°C° 0 mm 1 mps 723 mmHg 34%
    23:00 +14°C° 0 mm 2 mps 723 mmHg 34%

    Day after tomorrow, 13 December, Thursday

    Time Temperature Precipitation Wind Pressure Humidity
    00:00 +14°C° 0 mm 2 mps 723 mmHg 35%
    01:00 +14°C° 0 mm 2 mps 723 mmHg 36%
    02:00 +13°C° 0 mm 2 mps 723 mmHg 36%
    03:00 +13°C° 0 mm 2 mps 723 mmHg 36%
    04:00 +13°C° 0 mm 2 mps 723 mmHg 37%
    05:00 +13°C° 0 mm 2 mps 723 mmHg 37%
    06:00 +12°C° 0 mm 2 mps 723 mmHg 37%
    07:00 +11°C° 0 mm 3 mps 724 mmHg 38%
    08:00 +13°C° 0 mm 3 mps 724 mmHg 34%
    09:00 +16°C° 0 mm 3 mps 725 mmHg 30%
    10:00 +18°C° 0 mm 3 mps 725 mmHg 26%
    11:00 +18°C° 0 mm 2 mps 725 mmHg 24%
    12:00 +19°C° 0 mm 2 mps 724 mmHg 22%
    13:00 +20°C° 0 mm 2 mps 724 mmHg 20%
    14:00 +20°C° 0 mm 2 mps 723 mmHg 19%
    15:00 +20°C° 0 mm 2 mps 723 mmHg 19%
    16:00 +21°C° 0 mm 2 mps 723 mmHg 18%
    17:00 +19°C° 0 mm 2 mps 723 mmHg 19%
    18:00 +18°C° 0 mm 2 mps 723 mmHg 21%
    19:00 +17°C° 0 mm 3 mps 723 mmHg 22%
    20:00 +17°C° 0 mm 3 mps 723 mmHg 23%
    21:00 +16°C° 0 mm 3 mps 724 mmHg 24%
    22:00 +15°C° 0 mm 4 mps 724 mmHg 25%
    23:00 +14°C° 0 mm 4 mps 723 mmHg 26%

    14 December, Friday

    Time Temperature Precipitation Wind Pressure Humidity
    00:00 +14°C° 0 mm 4 mps 723 mmHg 26%
    01:00 +13°C° 0 mm 4 mps 723 mmHg 27%
    02:00 +13°C° 0 mm 3 mps 723 mmHg 27%
    03:00 +13°C° 0 mm 3 mps 723 mmHg 28%
    04:00 +12°C° 0 mm 3 mps 723 mmHg 28%
    05:00 +12°C° 0 mm 3 mps 723 mmHg 29%
    06:00 +12°C° 0 mm 3 mps 724 mmHg 29%
    07:00 +11°C° 0 mm 3 mps 724 mmHg 30%
    08:00 +13°C° 0 mm 3 mps 724 mmHg 27%
    09:00 +16°C° 0 mm 3 mps 725 mmHg 24%
    10:00 +18°C° 0 mm 2 mps 725 mmHg 20%
    11:00 +19°C° 0 mm 2 mps 725 mmHg 19%
    12:00 +21°C° 0 mm 1 mps 724 mmHg 18%
    13:00 +22°C° 0 mm 1 mps 724 mmHg 16%
    14:00 +22°C° 0 mm 1 mps 724 mmHg 16%
    15:00 +22°C° 0 mm 1 mps 724 mmHg 16%
    16:00 +22°C° 0 mm 1 mps 723 mmHg 16%
    17:00 +20°C° 0 mm 2 mps 724 mmHg 17%
    18:00 +19°C° 0 mm 2 mps 724 mmHg 19%
    19:00 +17°C° 0 mm 2 mps 724 mmHg 20%
    20:00 +17°C° 0 mm 2 mps 724 mmHg 20%
    21:00 +16°C° 0 mm 2 mps 724 mmHg 21%
    22:00 +16°C° 0 mm 2 mps 724 mmHg 21%
    23:00 +15°C° 0 mm 2 mps 724 mmHg 22%

    15 December, Saturday

    Time Temperature Precipitation Wind Pressure Humidity
    00:00 +15°C° 0 mm 2 mps 724 mmHg 22%
    01:00 +14°C° 0 mm 2 mps 724 mmHg 23%
    02:00 +14°C° 0 mm 2 mps 723 mmHg 23%
    03:00 +14°C° 0 mm 2 mps 723 mmHg 24%
    04:00 +13°C° 0 mm 2 mps 723 mmHg 24%
    05:00 +13°C° 0 mm 2 mps 723 mmHg 24%
    06:00 +13°C° 0 mm 2 mps 724 mmHg 24%
    07:00 +13°C° 0 mm 2 mps 724 mmHg 24%
    08:00 +14°C° 0 mm 2 mps 725 mmHg 22%
    09:00 +16°C° 0 mm 2 mps 725 mmHg 19%
    10:00 +18°C° 0 mm 2 mps 726 mmHg 16%
    11:00 +20°C° 0 mm 1 mps 725 mmHg 15%
    12:00 +21°C° 0 mm 1 mps 724 mmHg 14%
    13:00 +22°C° 0 mm 1 mps 724 mmHg 13%
    14:00 +22°C° 0 mm 1 mps 724 mmHg 13%
    15:00 +22°C° 0 mm 1 mps 724 mmHg 14%
    16:00 +22°C° 0 mm 1 mps 724 mmHg 14%
    17:00 +20°C° 0 mm 2 mps 724 mmHg 15%
    18:00 +18°C° 0 mm 2 mps 724 mmHg 16%
    19:00 +17°C° 0 mm 2 mps 725 mmHg 17%
    20:00 +17°C° 0 mm 2 mps 725 mmHg 18%
    21:00 +16°C° 0 mm 2 mps 725 mmHg 19%
    22:00 +16°C° 0 mm 2 mps 725 mmHg 19%
    23:00 +15°C° 0 mm 2 mps 725 mmHg 20%

    16 December, Sunday

    Time Temperature Precipitation Wind Pressure Humidity
    00:00 +15°C° 0 mm 2 mps 725 mmHg 20%
    01:00 +14°C° 0 mm 2 mps 724 mmHg 21%
    02:00 +14°C° 0 mm 2 mps 724 mmHg 22%
    03:00 +13°C° 0 mm 1 mps 724 mmHg 22%
    04:00 +13°C° 0 mm 1 mps 724 mmHg 23%
    05:00 +13°C° 0 mm 1 mps 725 mmHg 23%
    06:00 +12°C° 0 mm 1 mps 725 mmHg 24%
    07:00 +12°C° 0 mm 1 mps 725 mmHg 24%
    08:00 +14°C° 0 mm 1 mps 726 mmHg 21%
    09:00 +16°C° 0 mm 1 mps 727 mmHg 19%
    10:00 +19°C° 0 mm 1 mps 727 mmHg 16%
    11:00 +19°C° 0 mm 2 mps 727 mmHg 15%
    12:00 +20°C° 0 mm 2 mps 726 mmHg 15%
    13:00 +21°C° 0 mm 3 mps 726 mmHg 15%
    14:00 +21°C° 0 mm 3 mps 725 mmHg 15%
    15:00 +20°C° 0 mm 3 mps 725 mmHg 16%
    16:00 +20°C° 0 mm 3 mps 725 mmHg 17%
    17:00 +19°C° 0 mm 3 mps 725 mmHg 20%
    18:00 +18°C° 0 mm 3 mps 725 mmHg 23%
    19:00 +17°C° 0 mm 3 mps 726 mmHg 25%
    20:00 +16°C° 0 mm 3 mps 726 mmHg 29%
    21:00 +14°C° 0 mm 3 mps 726 mmHg 32%
    22:00 +14°C° 0 mm 3 mps 726 mmHg 35%
    23:00 +13°C° 0 mm 3 mps 725 mmHg 37%
    Show more